Wind_Speed
7 5 6 8 9 7 5 4 3 5 9 12 15 18 20 21 22 21 19 19 20 23 26 25 24 25 26 26 25 25 26 25 23 21 22 25 26 27 27 26 25 24 24 23 23 24 25 26 26 27 28 28 28 27 26 24 23 24 23 21 21 22 23 25 28 30 28 23 20 19 19 17 17 20 23 25 26 26 24 23 22 23 25 26 25
6 5 4 6 8 8 7 7 6 3 3 6 8 10 13 15 19 21 21 20 20 21 24 24 21 23 25 26 26 26 25 24 22 20 21 23 26 27 27 26 27 27 25 24 24 24 25 26 27 28 27 27 30 30 28 25 23 23 23 22 22 24 24 25 27 28 28 25 22 21 20 19 19 20 21 23 26 28 29 28 26 27 28 29 29
5 4 3 3 5 7 7 7 8 7 5 4 5 4 4 6 9 13 16 18 18 18 19 20 20 21 23 23 23 22 21 21 20 19 19 21 23 24 25 25 26 26 25 24 24 23 23 25 27 28 27 26 29 31 29 26 24 24 24 23 23 24 24 25 26 28 29 27 24 22 20 19 21 22 22 24 26 29 32 32 31 31 32 31 30
4 3 3 2 2 4 6 5 4 7 6 5 5 5 3 4 5 3 4 8 9 11 14 16 17 17 18 19 18 18 18 18 19 19 19 20 21 23 23 22 23 25 24 24 24 23 23 24 25 26 25 26 28 29 28 28 27 27 27 26 25 26 25 25 26 28 28 27 26 25 23 22 23 23 24 25 25 24 27 30 31 32 33 33 33
4 3 2 3 2 1 5 5 2 3 4 2 4 5 2 5 7 4 2 3 2 4 6 9 11 13 14 15 16 17 17 17 18 19 19 19 19 20 21 20 22 23 23 23 24 24 24 24 24 24 25 27 28 28 29 30 30 30 30 29 28 28 27 26 27 28 29 29 29 28 27 26 26 24 23 25 27 26 25 26 28 29 31 33 34
5 4 3 3 3 2 2 2 1 2 1 1 2 2 1 3 5 4 5 6 4 1 2 3 4 6 9 11 12 14 15 16 16 16 16 17 18 18 18 18 20 21 21 21 21 22 23 24 25 25 25 27 28 29 31 33 32 31 31 31 31 29 27 25 25 25 26 28 30 30 30 28 28 27 26 26 29 30 28 27 28 29 30 31 32
5 5 5 4 3 4 3 1 1 1 1 1 1 1 3 3 3 4 5 6 5 4 3 1 1 2 2 4 7 9 11 13 13 13 15 16 17 17 17 17 19 21 21 21 21 21 22 23 24 26 26 27 28 29 31 32 31 29 30 32 32 30 27 27 27 26 24 25 27 31 31 30 29 30 31 30 30 31 31 32 32 31 31 32 32
6 6 5 5 5 5 5 4 4 3 2 2 2 4 4 4 6 7 8 7 8 8 7 7 7 5 3 2 3 5 8 10 12 13 14 16 16 17 17 18 19 20 20 21 21 22 22 23 24 25 26 26 27 28 29 29 29 29 30 31 32 31 30 29 29 30 30 29 30 32 34 33 31 33 34 33 32 32 32 34 35 35 33 33 33
7 7 7 7 7 6 6 7 7 5 5 4 4 4 4 5 7 8 9 9 9 11 12 12 11 10 8 6 4 4 5 7 9 11 12 14 15 15 15 16 17 18 20 21 21 22 22 22 23 24 24 24 24 26 27 27 27 29 31 31 32 33 32 30 30 32 33 33 34 36 38 36 33 34 36 36 35 33 33 35 37 37 36 35 35
7 7 7 7 7 7 7 7 6 5 5 5 5 5 3 5 5 4 5 7 9 12 15 15 14 13 12 11 10 8 7 8 10 12 13 14 15 15 15 16 16 17 19 20 20 20 21 21 22 23 23 23 23 24 25 25 26 28 30 29 30 31 32 31 31 31 31 31 33 35 37 37 35 35 37 37 35 33 33 35 37 38 38 39 38
7 7 8 7 7 7 7 7 6 5 5 5 6 6 5 5 4 3 4 6 9 11 12 13 14 14 14 14 13 12 11 12 14 15 17 17 17 18 17 18 18 19 19 20 21 21 20 20 20 20 21 21 21 22 24 25 26 27 27 26 26 28 29 30 31 30 31 32 34 35 36 36 36 37 36 35 35 35 35 36 36 37 39 40 41
7 7 7 7 7 7 7 7 6 6 6 6 6 7 8 7 6 8 8 8 9 9 8 9 10 11 11 11 12 12 12 14 15 17 20 21 22 22 22 22 23 22 23 23 23 23 23 23 23 22 22 22 21 21 23 24 23 23 22 22 22 23 24 26 28 28 29 31 32 34 35 36 37 38 37 36 36 37 37 36 35 36 37 39 41
6 6 7 7 7 7 7 6 6 7 7 6 5 6 7 8 10 12 11 10 10 9 8 9 8 9 10 10 9 8 8 12 15 17 20 22 24 25 26 27 27 27 27 27 27 27 26 26 26 26 25 25 24 24 24 24 24 24 23 23 23 23 23 25 26 27 29 30 30 31 33 34 36 38 39 39 39 38 37 36 37 37 37 37 37
5 5 6 7 7 7 7 6 6 6 6 6 5 4 6 9 12 14 13 12 11 11 11 11 9 10 12 13 12 9 6 9 13 16 19 21 24 26 27 29 30 31 31 30 30 30 30 29 30 30 29 28 28 28 27 27 27 27 27 28 28 28 27 28 29 30 31 32 33 34 34 34 35 37 38 39 41 41 40 40 40 40 40 41 40
4 5 5 6 6 6 6 7 6 6 7 7 6 6 9 11 12 13 13 12 12 12 12 11 11 12 12 12 11 9 8 9 11 13 16 18 21 23 25 26 28 29 29 28 27 27 28 28 28 28 27 25 24 24 24 24 25 24 25 27 28 27 27 27 27 28 28 30 33 35 37 37 37 37 38 39 41 42 42 43 44 43 44 45 44
4 5 5 5 6 6 6 6 7 7 7 7 8 10 12 12 12 13 12 11 11 11 10 9 9 10 10 9 8 6 7 10 12 14 16 18 19 21 22 23 23 21 19 17 16 17 18 18 18 18 17 17 18 19 19 20 22 23 24 26 27 28 28 27 27 28 29 30 32 33 35 36 36 37 37 37 39 40 40 41 43 44 46 47 46
4 4 5 5 6 5 5 6 7 7 7 7 10 12 13 13 12 12 11 10 9 9 8 8 8 8 8 8 6 6 9 12 13 15 17 19 19 20 21 22 17 11 10 10 10 10 10 11 12 13 13 16 18 19 20 22 24 26 28 29 30 31 31 30 31 32 33 34 34 35 35 36 36 37 37 37 37 36 38 41 42 42 45 46 46
4 5 5 5 5 5 5 5 6 6 6 9 12 11 11 11 10 10 10 9 10 10 9 9 9 9 8 9 9 9 8 9 12 14 17 18 18 19 20 19 11 6 7 7 7 7 7 8 11 13 15 17 19 21 23 25 27 29 30 32 33 34 34 34 36 36 37 37 38 38 39 39 40 40 39 39 37 35 36 40 40 40 44 46 47
4 5 5 5 5 5 5 5 7 6 5 10 12 10 8 8 10 10 10 9 9 10 10 10 10 11 11 11 11 12 11 9 9 11 13 15 15 16 17 15 9 6 8 11 11 11 11 12 13 14 16 17 19 22 25 27 29 31 33 36 37 38 37 37 38 39 39 40 41 42 43 43 44 45 44 43 42 39 39 39 38 38 43 46 46
4 5 5 5 5 5 4 6 7 5 6 10 11 8 6 7 9 10 10 9 10 11 11 11 11 12 12 13 13 14 14 12 12 12 13 14 15 16 17 16 13 12 12 13 13 14 15 15 16 18 20 21 22 25 27 29 32 34 36 37 38 39 39 39 40 41 43 45 46 46 48 48 49 50 51 50 48 46 44 43 42 41 43 46 47
4 4 4 4 4 4 4 6 6 5 7 9 9 9 9 9 10 11 10 10 12 13 12 12 12 12 12 13 14 15 14 13 13 14 15 16 17 18 19 18 16 15 13 13 13 14 15 17 18 20 22 24 25 27 28 29 31 32 34 36 37 39 41 42 43 44 46 49 49 50 51 51 52 53 53 51 49 45 42 41 41 41 42 43 45
4 4 4 4 5 5 5 6 6 6 8 9 8 9 11 11 10 11 11 11 12 13 13 13 12 12 12 13 13 14 14 13 14 15 16 17 18 20 19 16 14 14 14 13 14 15 16 18 20 21 23 24 25 26 27 29 30 31 33 35 37 39 41 44 45 45 45 45 44 44 44 44 46 48 49 49 47 43 40 38 37 37 40 41 42
4 4 4 4 5 6 5 5 5 6 7 8 7 8 10 11 10 11 13 12 11 12 13 14 14 13 13 11 10 10 12 14 14 15 17 18 19 20 19 16 15 15 15 15 15 17 18 19 21 22 23 25 25 26 27 28 29 31 32 33 35 36 37 38 38 36 35 34 33 34 33 33 34 36 37 38 39 38 36 35 34 36 39 41 42
4 4 5 5 5 5 5 5 6 6 7 7 6 7 9 10 9 11 13 12 11 12 12 12 12 12 12 11 10 9 10 13 14 15 16 19 21 22 21 19 18 18 17 17 18 19 19 20 21 23 23 24 25 26 27 27 28 29 29 29 29 29 29 28 26 25 26 26 27 30 31 30 31 33 33 33 33 32 31 31 31 32 35 38 41
4 3 4 4 4 5 4 5 6 6 7 8 7 7 9 9 9 10 12 12 12 12 12 11 11 10 10 11 10 8 8 10 14 16 17 20 20 20 19 18 18 17 17 17 18 18 19 19 20 21 22 23 24 25 25 25 24 24 23 22 22 22 22 21 21 23 25 26 28 31 33 33 33 34 34 34 33 32 31 31 32 32 32 33 37
3 4 4 4 4 4 4 4 5 5 6 7 6 5 6 8 8 8 11 13 12 10 10 11 11 10 10 10 9 6 5 6 11 13 14 16 15 15 16 16 16 17 17 17 18 18 18 18 19 20 21 21 21 21 21 20 19 18 18 18 18 20 21 22 23 24 26 27 29 31 33 34 35 35 35 36 36 34 33 33 34 34 33 33 35
3 3 2 2 3 3 3 4 6 6 4 5 6 4 6 7 7 6 10 14 12 9 8 8 9 10 10 9 9 7 5 5 10 12 13 14 15 16 17 18 19 20 20 20 20 20 20 19 18 18 18 18 18 18 19 19 20 21 21 21 21 22 23 23 24 25 25 27 29 31 32 34 35 36 36 36 36 35 33 34 35 35 34 35 37
3 3 3 3 3 3 4 5 6 5 4 4 5 3 6 9 9 8 12 15 14 11 10 8 9 11 9 8 9 10 8 9 13 16 17 18 19 19 20 21 21 22 22 22 21 20 19 17 15 15 17 19 19 20 20 21 21 21 21 22 22 23 22 22 22 23 23 24 26 29 31 32 33 35 36 37 37 35 34 33 34 36 36 36 37
6 5 4 3 3 4 4 4 4 5 4 5 5 4 6 9 11 11 14 15 13 12 13 12 12 13 11 10 12 13 12 14 16 17 18 19 20 20 21 22 22 22 21 21 21 20 18 15 15 17 18 18 17 18 19 19 20 19 18 18 19 20 20 20 20 21 23 24 24 25 26 28 30 31 32 34 35 36 36 35 34 34 35 36 37
5 4 4 2 3 5 6 4 3 5 5 4 6 6 8 11 12 12 14 14 12 13 14 14 14 14 14 14 14 15 15 16 17 18 18 18 18 19 20 21 21 20 21 21 20 18 17 17 17 17 18 18 17 17 17 17 18 18 18 17 17 17 18 18 19 22 25 25 24 25 27 29 30 31 32 33 34 34 35 36 37 35 34 35 37
3 3 3 3 5 8 7 4 3 5 5 5 6 7 8 11 12 13 14 13 13 13 14 14 14 15 15 15 14 15 17 17 18 18 18 18 18 18 19 19 18 17 19 21 20 17 17 19 18 17 18 19 18 18 19 19 19 19 19 19 19 19 19 19 21 24 25 25 27 29 30 30 30 32 33 35 36 37 36 34 34 37 38 37 37
3 3 3 4 6 7 7 5 5 6 5 6 7 7 8 9 11 13 14 13 14 15 14 14 15 15 15 14 14 16 17 18 18 18 18 17 18 18 17 16 14 14 18 21 20 17 16 17 18 17 17 17 17 18 19 19 20 20 20 21 22 21 22 23 25 24 23 25 28 30 29 29 31 32 33 34 36 37 37 35 32 32 36 39 40
5 4 3 3 5 5 4 4 5 5 5 6 6 7 7 8 9 11 12 12 14 14 13 14 16 16 15 14 14 16 18 19 19 19 18 17 18 19 18 15 12 13 17 20 19 16 15 17 20 19 18 17 17 18 19 18 19 20 21 21 22 22 23 25 25 24 24 27 29 28 27 29 32 34 34 35 35 36 36 35 33 31 31 34 38
5 5 4 5 6 5 4 4 4 4 5 6 6 7 7 8 8 9 9 10 12 12 12 14 15 14 14 15 15 16 18 18 20 20 19 18 19 20 19 17 13 13 17 20 18 15 16 20 21 20 19 19 19 19 19 19 19 20 21 21 22 23 24 24 24 25 27 29 29 28 28 30 32 33 34 35 35 36 36 35 33 32 31 31 33
6 6 7 7 7 5 3 2 3 4 5 5 6 7 8 6 5 6 8 10 11 11 11 12 13 13 15 15 15 16 17 17 19 20 21 21 21 20 20 19 16 13 16 18 16 15 18 21 21 20 20 21 21 21 21 20 20 20 21 21 23 24 25 25 25 27 29 30 30 30 30 31 32 32 33 34 35 36 37 36 34 33 33 33 33
6 6 7 8 8 6 3 2 3 5 6 7 8 8 6 5 5 7 9 10 10 10 11 11 12 13 15 16 16 17 18 19 20 21 22 22 21 20 21 21 18 15 15 16 16 18 21 22 21 21 21 22 23 23 22 22 23 23 22 23 24 24 25 26 28 30 31 31 32 32 32 32 33 32 32 33 34 35 36 36 36 35 34 34 35
8 6 5 6 6 5 4 5 7 7 8 8 7 5 5 5 6 8 9 10 11 11 12 12 12 13 15 16 16 17 19 20 22 23 24 23 21 21 22 22 19 18 17 17 18 21 23 23 22 22 23 23 24 25 25 25 25 25 25 25 26 26 27 28 30 32 32 32 33 32 32 32 32 32 33 34 34 34 34 36 36 36 35 35 36
9 8 6 6 7 8 9 9 8 8 7 7 6 7 7 8 8 9 10 11 11 12 12 13 13 14 15 15 16 17 18 19 20 23 25 25 23 22 21 20 19 19 19 19 21 23 24 24 23 23 24 25 25 25 26 27 27 27 27 27 28 28 28 30 31 32 33 33 33 32 32 32 32 32 33 34 34 34 34 35 37 38 37 37 38
11 10 8 7 7 7 8 7 7 7 7 7 7 8 9 9 10 10 11 11 12 12 13 14 14 15 15 16 16 17 16 16 19 23 26 28 27 23 20 19 19 19 19 20 22 24 25 25 25 25 26 27 27 27 28 28 28 29 29 29 29 29 29 29 30 32 32 33 33 32 32 32 33 33 34 34 34 34 35 35 36 38 39 39 40
11 10 10 9 8 7 7 6 6 7 6 6 6 7 9 10 11 12 12 12 13 14 14 15 16 18 18 17 17 18 19 21 24 27 29 30 30 27 23 21 21 20 20 21 23 23 24 27 28 28 28 28 28 29 30 30 30 30 30 30 30 30 30 30 30 31 32 32 33 33 33 33 34 34 34 34 34 34 35 35 36 37 39 40 41
10 10 11 11 10 9 8 7 7 6 6 6 7 9 10 11 12 12 13 14 15 16 17 18 19 19 19 19 19 21 22 24 26 28 29 29 29 27 22 20 20 21 23 25 24 23 23 26 29 29 30 30 30 31 32 32 33 33 33 32 32 32 32 32 32 31 31 32 33 34 35 36 36 36 35 35 35 36 36 35 35 36 37 39 41
11 10 11 12 11 10 10 9 9 9 9 9 10 11 11 11 12 13 15 16 17 19 20 20 20 20 20 20 21 23 25 26 27 28 28 27 26 23 19 18 19 23 26 26 25 23 24 26 28 29 30 30 30 31 31 32 33 34 35 35 36 35 34 34 33 32 32 32 34 36 37 38 38 37 37 36 36 37 37 36 34 34 36 38 40
11 11 11 11 11 11 11 10 10 10 11 12 13 13 14 15 16 17 17 18 19 20 20 21 22 22 22 21 22 24 26 26 26 26 25 23 21 21 20 21 23 26 27 26 26 26 26 26 26 27 29 30 30 31 30 30 31 32 33 34 35 36 36 36 35 35 34 36 38 39 39 39 39 39 37 36 36 37 37 37 35 35 35 37 38
12 12 12 12 12 12 12 12 12 13 14 15 16 17 17 18 18 19 20 20 20 19 20 21 21 22 22 23 23 24 25 25 24 24 23 21 21 23 24 24 25 26 26 26 26 25 25 25 26 27 28 29 29 29 30 30 29 29 29 30 31 33 33 33 33 34 35 38 40 41 40 39 39 39 38 37 37 38 38 37 36 35 35 36 37
13 13 13 13 13 13 13 14 14 15 15 16 16 17 17 18 18 19 20 20 20 20 22 22 22 23 24 24 24 25 25 25 25 25 24 24 25 27 27 26 26 26 27 28 28 27 27 27 28 28 29 29 28 28 29 30 29 29 29 28 26 26 27 30 32 34 37 39 41 42 41 40 39 39 39 38 37 37 38 37 36 36 36 35 36
13 13 13 13 13 14 14 14 15 15 15 16 17 17 18 18 19 20 21 21 21 22 22 22 22 23 24 24 23 23 23 23 24 24 25 25 26 26 26 26 26 26 27 27 28 29 29 28 28 28 30 30 29 28 28 29 30 30 29 26 24 24 27 30 32 35 37 40 41 41 41 40 40 39 39 38 37 36 37 37 36 36 35 35 35
14 14 14 14 14 14 15 15 16 17 18 18 19 19 19 20 20 21 21 22 21 22 22 22 22 22 23 22 22 22 22 23 23 23 22 23 24 25 25 26 27 28 28 28 28 29 29 29 29 30 30 31 30 29 28 28 28 28 28 27 28 30 31 32 32 34 37 38 39 39 39 40 40 39 38 37 36 35 35 35 36 36 35 34 34
15 15 15 15 15 15 16 17 17 18 18 18 19 20 20 20 20 20 20 20 20 21 22 22 22 22 21 21 21 21 21 22 23 24 24 24 25 26 26 26 26 25 25 25 26 28 29 31 31 30 29 31 31 30 28 27 28 29 30 31 33 34 34 33 34 35 36 36 37 38 39 39 39 39 38 36 34 33 32 33 36 39 37 33 32
15 15 15 15 16 16 17 17 17 18 18 18 19 19 19 18 18 18 19 19 19 20 21 21 21 21 20 20 21 22 22 22 23 24 24 24 25 25 25 26 27 26 25 25 25 25 26 28 29 29 30 32 32 29 28 29 30 31 33 34 35 36 35 35 36 36 35 35 36 36 37 38 38 38 37 35 32 30 29 31 36 40 39 33 30
15 15 16 17 18 18 17 17 17 17 17 17 17 17 17 17 17 17 17 17 18 18 19 19 19 19 19 20 20 21 21 21 22 22 22 23 24 25 25 25 25 25 26 26 27 27 28 30 30 30 31 31 31 31 33 35 33 33 34 35 36 37 37 37 37 36 34 34 34 35 35 37 38 37 36 34 30 27 27 30 36 40 38 32 28
18 19 19 19 18 17 16 15 15 15 15 16 16 17 16 15 14 14 15 16 17 17 17 18 18 19 20 20 20 19 19 20 22 23 24 24 24 24 24 24 24 24 25 24 24 25 28 30 30 31 30 29 30 35 39 38 35 33 33 33 34 36 37 37 37 36 33 32 33 33 34 36 36 36 35 31 26 24 27 31 35 39 37 31 28
Wind_Direction
49 49 86 88 81 82 86 99 157 195 200 208 215 220 226 229 230 233 235 235 238 240 240 239 239 240 242 241 241 244 247 250 252 255 255 255 256 257 258 259 256 255 257 260 260 259 258 259 260 260 263 264 261 253 247 241 237 239 244 245 243 243 248 251 254 260 260 256 255 253 244 244 250 248 247 252 256 257 260 260 251 247 248 244 240
54 43 76 101 100 100 101 98 98 112 178 188 194 208 219 223 225 230 231 231 234 238 242 242 239 238 241 243 245 247 249 250 252 257 261 259 257 258 260 261 260 260 261 261 261 261 260 260 260 260 261 267 270 265 257 249 244 243 244 247 248 244 243 247 252 258 262 261 257 256 254 251 250 252 253 256 261 262 261 260 257 258 260 254 248
58 48 45 92 105 104 109 116 115 107 114 146 151 162 189 199 209 220 225 228 230 231 234 234 232 233 237 240 245 248 250 252 254 258 262 262 258 257 259 259 261 263 263 262 261 262 265 267 267 265 265 268 271 270 265 259 252 247 244 246 252 253 249 248 250 254 259 262 260 258 259 255 251 253 255 257 264 268 263 261 262 265 266 262 258
55 47 34 54 82 117 112 98 123 141 139 147 148 137 149 173 165 180 231 238 238 231 222 216 218 227 235 238 242 248 252 256 256 254 254 256 255 253 254 255 260 265 266 265 265 265 268 272 274 275 276 275 272 271 269 265 261 253 244 240 244 248 251 253 253 254 257 262 263 260 257 251 245 246 249 251 257 266 265 261 261 265 268 269 270
54 46 40 45 14 152 125 86 72 161 148 140 147 135 146 183 162 142 182 215 251 260 238 223 214 217 227 233 236 241 245 248 249 249 251 252 251 251 252 253 256 261 265 269 270 269 270 274 277 279 278 275 274 276 276 275 273 265 254 247 244 244 248 254 256 255 255 259 262 263 261 258 254 254 255 254 253 257 260 257 256 258 263 269 271
54 52 57 47 6 9 106 115 103 116 133 185 138 101 342 222 177 175 206 205 196 162 21 336 272 231 232 238 237 237 240 244 248 253 255 255 257 257 256 256 257 258 262 267 269 269 269 272 276 277 276 273 274 277 280 282 280 277 274 268 258 251 249 249 252 256 257 259 263 266 266 263 260 258 257 257 256 256 259 261 259 255 256 259 260
57 54 63 55 29 24 13 280 147 100 255 267 34 331 290 259 219 234 250 243 240 218 167 146 246 227 243 261 263 261 255 252 253 258 260 260 262 263 261 260 261 262 263 266 266 266 267 271 275 277 276 275 276 277 279 280 279 280 285 280 270 266 263 258 257 260 260 260 265 269 267 265 264 262 259 258 257 255 257 260 258 253 251 250 250
57 51 60 58 52 39 10 17 47 18 345 11 316 275 277 280 263 262 267 271 278 269 241 225 226 222 213 225 276 293 280 265 256 255 258 259 260 262 263 262 263 264 265 267 268 267 268 271 274 275 275 274 276 277 277 279 279 277 281 283 279 274 270 266 262 262 263 266 268 269 268 266 266 267 265 261 258 256 258 261 260 258 254 249 248
57 52 52 49 48 43 23 33 41 17 16 28 352 333 330 302 286 280 274 266 268 269 261 255 254 256 252 242 243 261 273 273 265 259 259 260 259 260 260 260 262 266 267 269 269 268 268 270 270 271 273 272 272 274 275 277 277 275 277 281 279 273 269 267 266 266 266 265 265 266 267 267 267 270 270 265 263 264 265 264 262 262 260 253 249
52 52 52 48 45 42 35 36 31 14 28 28 359 1 352 318 327 333 297 267 256 258 260 260 262 265 263 258 255 253 256 265 264 260 260 262 263 262 260 260 262 265 268 268 268 267 267 268 269 270 273 274 273 276 276 275 275 275 275 276 276 276 275 273 272 273 272 268 266 265 264 265 267 269 269 267 267 269 269 266 264 264 262 258 254
43 45 45 43 42 41 39 37 24 13 31 25 356 353 355 348 346 313 279 269 264 264 267 268 266 265 264 265 265 262 262 265 263 260 261 262 263 264 263 263 263 263 265 268 270 272 270 271 273 273 274 276 276 276 278 277 276 275 275 276 279 282 282 279 278 279 277 275 272 269 266 267 269 270 270 269 267 266 265 265 265 263 259 256 258
32 36 33 29 32 33 32 34 21 12 23 17 357 360 360 346 316 293 286 283 281 281 284 284 281 276 271 269 270 270 270 271 270 269 269 267 267 267 265 265 265 266 267 269 271 272 273 274 276 277 278 279 279 279 280 280 280 280 282 284 284 285 284 281 279 280 280 278 275 271 269 269 270 270 271 271 269 267 265 264 264 263 261 258 259
20 26 25 17 17 21 23 22 14 14 16 0 356 10 354 319 307 310 309 296 286 280 273 273 279 280 270 258 256 265 281 285 280 273 271 271 270 270 268 267 266 266 266 268 270 273 275 277 277 278 280 280 280 282 282 282 285 288 289 289 288 289 288 283 280 281 282 283 282 278 276 274 272 271 272 272 271 268 266 264 262 261 261 259 257
13 15 20 12 8 13 12 7 4 8 1 347 357 0 312 295 301 308 308 298 288 280 271 266 263 267 266 259 252 245 251 280 284 278 275 274 273 272 272 271 270 269 268 269 270 272 274 277 280 280 281 281 282 283 283 283 284 284 284 283 282 284 285 285 285 286 286 286 286 284 283 282 280 280 279 279 277 274 272 271 268 265 263 264 264
11 10 16 7 5 8 4 359 354 350 348 352 351 322 300 300 303 301 300 297 291 286 281 273 265 265 267 264 260 255 255 268 279 282 282 282 280 280 280 279 278 278 278 277 277 277 278 282 285 287 289 291 291 290 288 286 286 285 283 282 280 280 279 280 283 285 286 287 287 287 288 288 288 287 285 284 282 281 282 281 278 276 275 275 274
16 13 11 5 4 3 2 358 343 340 357 354 328 315 314 311 302 298 301 304 302 299 295 291 285 282 281 274 259 250 258 265 270 276 279 282 285 287 288 289 289 290 290 291 293 293 294 297 300 303 306 301 290 284 282 281 282 282 281 281 282 283 284 285 286 287 287 284 283 285 286 287 288 288 287 285 284 284 285 283 281 280 280 281 280
14 12 3 7 7 357 0 356 337 345 2 335 311 318 323 317 310 311 318 325 331 334 331 325 322 319 317 310 289 258 248 254 264 273 279 285 290 293 294 295 299 312 322 319 312 305 304 304 302 298 291 282 274 273 273 273 273 275 277 280 283 286 290 293 292 290 288 285 283 282 281 281 281 281 281 281 281 281 281 278 277 278 278 278 278
14 6 357 6 4 354 1 350 338 1 358 317 315 328 328 324 329 336 342 349 349 350 349 345 345 347 345 340 330 314 293 276 276 281 286 293 298 299 299 299 304 335 331 306 282 270 264 262 266 268 267 268 270 270 272 274 277 281 285 289 291 293 295 295 294 291 290 288 287 286 285 283 281 279 277 275 275 274 273 273 275 276 274 273 274
4 354 356 6 356 354 2 338 337 9 351 316 323 333 330 336 345 349 354 356 350 349 350 350 353 357 359 359 356 353 353 346 328 317 315 316 314 310 308 309 309 292 266 251 240 236 233 234 241 249 255 259 264 270 275 282 287 290 293 294 295 296 297 295 294 294 294 293 292 291 290 289 286 283 280 277 274 271 269 269 272 273 272 271 271
352 351 358 4 349 355 0 333 339 6 345 331 340 345 342 350 355 356 359 357 354 356 356 357 360 3 9 14 14 13 13 7 358 349 340 334 328 322 320 322 320 302 279 267 263 259 255 253 254 258 263 268 273 278 283 287 290 291 292 293 294 296 296 296 296 295 295 294 293 292 291 290 288 286 283 281 279 275 272 270 271 271 272 273 272
349 349 355 359 349 353 349 338 353 5 347 351 6 0 355 3 4 1 0 1 3 3 1 3 4 6 16 22 19 16 10 358 353 350 341 332 327 324 324 327 326 320 309 298 292 286 280 276 276 278 281 283 284 286 286 287 288 289 290 292 293 295 295 295 294 294 293 292 292 291 291 290 288 287 286 286 284 281 277 273 272 273 273 273 272
352 344 356 2 351 359 2 354 4 359 349 8 26 7 0 12 13 1 357 4 11 9 5 4 4 9 21 24 19 13 2 352 350 346 337 330 327 328 333 335 330 324 318 311 306 302 298 293 292 291 291 291 290 289 288 287 286 287 288 288 290 291 291 291 292 292 293 294 294 294 294 294 293 292 291 290 288 285 282 276 271 270 273 275 275
345 343 7 11 358 9 12 357 353 350 354 17 28 5 3 14 10 359 0 8 15 14 12 10 9 12 15 15 19 18 2 351 344 335 327 325 326 331 337 337 331 325 319 315 311 306 302 299 297 296 294 293 292 291 290 289 289 289 289 288 288 288 289 291 293 296 298 300 303 304 307 311 311 309 308 304 297 291 287 282 274 268 268 271 275
340 354 17 14 3 14 11 347 345 353 6 21 21 3 8 14 5 359 4 9 14 17 16 15 14 14 12 11 15 18 7 350 336 327 324 323 323 329 335 336 333 328 323 317 312 307 305 303 300 298 297 296 296 295 295 294 293 291 290 290 291 294 297 299 302 306 309 313 316 318 322 327 327 325 325 322 314 305 298 293 287 278 271 268 268
331 3 21 10 5 17 9 346 345 1 16 21 16 6 8 11 7 1 2 8 16 16 11 11 15 14 16 15 11 16 18 351 327 319 321 321 323 332 340 341 339 335 329 323 318 315 313 310 308 308 307 306 305 302 300 298 296 296 298 301 306 313 317 317 318 320 321 324 326 326 326 327 326 324 323 322 319 315 311 307 304 299 293 286 277
342 16 18 7 10 15 1 352 6 20 15 13 22 16 359 6 14 2 354 3 17 17 8 8 12 10 9 7 4 22 46 350 322 322 328 330 336 345 348 349 351 347 342 339 335 331 326 323 321 319 316 314 312 311 312 313 314 318 325 329 331 333 334 333 330 327 326 326 326 326 324 322 320 318 317 315 312 310 309 308 306 304 303 300 294
337 7 16 20 23 9 351 6 30 40 13 2 27 18 336 359 27 12 352 360 8 14 17 10 1 4 8 3 0 20 40 343 332 342 347 347 351 353 352 355 357 353 350 348 344 338 334 331 326 324 327 332 333 332 336 339 340 344 349 349 344 340 336 333 329 327 326 325 323 320 317 315 314 313 312 310 307 305 303 302 300 299 299 297 295
2 45 42 32 15 347 346 5 17 21 2 355 16 354 325 356 18 11 3 7 6 8 19 12 356 3 11 1 357 7 3 343 343 349 349 348 351 353 354 356 357 354 353 351 347 346 345 340 338 346 351 347 342 342 346 346 344 346 348 345 342 340 336 331 329 328 324 320 316 313 313 315 316 316 313 309 305 302 300 298 296 294 294 293 290
26 33 21 11 331 318 350 18 0 348 354 353 350 329 322 347 1 359 0 8 10 11 18 16 9 11 10 0 358 0 355 348 347 348 348 347 348 350 352 354 354 353 353 352 352 355 356 355 1 3 352 337 332 339 344 341 338 338 339 338 337 336 333 334 334 328 319 314 315 319 323 326 326 326 325 320 313 304 298 294 294 295 296 292 288
2 359 351 343 279 301 338 12 347 334 348 344 336 332 328 337 350 352 350 357 8 15 19 20 18 15 11 6 5 4 1 360 358 356 355 354 351 349 350 351 351 349 349 351 354 356 357 2 6 358 340 328 330 335 332 327 327 329 331 330 327 324 323 324 324 319 315 315 319 326 332 333 332 333 334 333 329 320 306 293 287 288 293 294 291
351 355 337 302 280 295 322 348 340 337 345 336 333 339 333 333 341 342 340 348 2 7 9 13 13 13 13 12 12 11 10 9 7 4 3 2 360 355 352 350 349 346 345 348 351 354 359 1 357 344 333 334 337 334 328 324 325 326 326 326 325 324 323 323 324 325 324 323 324 327 332 335 336 337 336 336 336 336 330 316 298 288 288 294 297
330 315 306 304 307 318 332 340 330 331 336 333 332 335 332 333 336 333 333 343 353 355 359 2 0 2 9 13 14 15 12 9 7 6 6 7 6 2 359 355 351 350 350 349 349 356 359 351 339 331 331 335 334 329 325 325 325 327 327 327 328 328 326 325 326 328 327 325 326 330 332 334 337 338 338 338 338 337 336 333 322 306 296 294 295
309 309 303 290 290 299 309 315 319 322 325 324 324 326 330 332 329 324 328 338 343 345 350 354 351 354 4 11 15 16 14 10 7 6 8 9 9 8 8 5 1 356 352 349 350 354 347 334 329 330 331 329 324 322 322 323 324 325 326 326 326 324 322 323 326 328 328 329 332 335 335 337 339 339 338 340 340 337 335 334 330 323 314 304 297
300 299 296 289 280 270 266 282 301 303 302 310 317 320 320 316 313 320 330 334 333 336 343 344 340 343 353 2 7 9 12 12 8 5 5 7 9 10 9 10 10 356 342 342 346 342 329 326 331 332 328 324 322 322 322 322 322 322 323 323 321 320 323 326 328 330 332 334 336 338 337 337 338 338 338 338 338 338 337 335 333 330 326 320 312
287 287 294 308 313 303 275 265 284 292 297 305 305 299 295 293 305 323 325 319 321 328 332 328 324 328 338 347 349 351 356 2 3 2 0 359 2 3 1 4 10 357 336 334 336 329 324 328 332 331 327 326 326 325 325 324 323 322 322 321 320 323 327 328 328 330 334 336 338 339 339 338 338 338 338 338 338 338 338 337 336 333 330 328 325
277 280 290 305 318 329 337 305 278 278 279 277 277 279 287 304 320 317 310 309 313 315 314 315 318 321 327 333 334 333 338 346 351 353 354 354 353 350 347 351 356 347 334 332 331 329 332 337 337 333 331 330 329 328 327 325 325 325 324 323 323 324 325 325 326 330 334 335 336 337 338 337 337 337 337 338 338 338 337 337 337 336 333 332 330
260 262 273 282 288 291 282 265 260 260 257 258 267 289 319 322 310 300 299 302 304 304 308 316 319 316 317 323 324 322 326 335 340 343 347 348 344 337 336 340 340 332 326 324 323 326 334 339 338 335 333 331 331 330 328 327 328 327 326 326 326 325 324 324 326 329 332 333 333 334 334 334 334 336 338 338 337 336 336 337 337 336 335 334 332
254 253 251 252 255 253 248 246 252 261 267 272 287 309 314 303 292 289 292 296 300 304 308 309 307 306 309 312 312 311 316 324 329 331 334 336 334 329 324 324 324 323 322 321 321 324 329 333 333 333 332 331 331 331 329 329 329 329 328 328 328 328 327 326 327 329 330 330 330 330 330 331 332 335 337 336 336 336 336 336 336 336 336 336 334
252 259 268 276 279 268 255 244 241 246 254 263 274 282 283 282 283 286 290 293 296 298 298 298 299 302 304 305 307 308 308 308 311 315 319 323 326 322 311 304 306 312 315 318 320 323 326 328 328 328 330 331 331 331 330 330 330 330 329 328 328 328 327 327 327 328 328 328 328 328 329 331 334 336 336 335 335 335 335 334 335 336 336 336 335
247 255 265 277 285 275 256 239 229 232 242 255 265 270 274 277 280 283 287 291 293 294 296 299 301 301 302 302 302 299 297 297 301 306 311 315 320 318 308 298 298 302 306 312 315 316 320 325 326 326 327 328 330 330 331 331 331 331 331 329 327 327 327 327 327 326 326 326 327 327 330 334 335 334 333 334 334 335 334 332 332 333 334 335 335
239 245 251 261 271 271 261 252 250 258 269 274 271 272 275 277 277 278 283 288 293 295 296 296 296 298 300 300 299 298 298 299 302 305 308 313 318 319 311 301 299 301 305 309 310 308 310 317 322 324 325 325 326 328 329 330 330 331 331 331 330 329 329 327 326 324 324 325 327 328 331 333 332 330 331 333 334 334 331 329 329 330 331 331 333
236 240 246 256 263 266 268 270 270 273 277 280 281 283 284 282 282 285 289 291 291 291 290 290 293 295 297 298 300 302 302 300 301 303 306 311 317 321 317 307 303 304 306 307 306 302 303 308 315 319 321 321 322 324 325 325 325 326 328 329 329 329 330 329 327 325 325 328 330 330 328 326 325 326 328 330 332 332 329 327 327 329 330 329 331
229 231 239 250 259 264 271 272 267 264 266 270 274 276 279 280 281 283 286 288 287 287 290 292 293 292 293 296 301 304 303 303 304 306 307 308 311 313 311 306 304 305 307 306 303 300 298 300 306 313 315 316 316 317 318 319 320 321 323 324 324 324 325 327 327 326 326 327 327 325 322 321 321 322 324 326 328 328 328 327 327 328 329 329 330
230 233 236 241 247 253 258 260 261 262 266 269 270 271 276 281 283 285 288 293 294 296 301 304 301 298 301 307 309 307 308 310 312 311 308 305 303 303 303 302 302 304 307 308 305 302 298 296 299 306 310 311 311 311 311 313 315 315 315 316 317 318 320 321 320 318 318 319 320 320 319 318 318 319 321 324 325 325 326 327 327 327 328 329 330
234 234 234 240 246 250 254 259 264 269 273 276 279 281 284 290 292 292 295 299 300 300 304 307 305 304 306 308 308 306 306 307 306 304 301 300 300 301 301 300 299 300 303 305 303 300 297 294 295 302 309 312 311 309 308 309 310 311 312 313 314 314 311 308 307 308 311 314 316 317 318 318 318 318 319 320 321 322 324 326 326 326 326 326 328
231 236 241 244 247 251 256 261 266 271 274 279 282 283 285 290 293 293 295 297 298 298 300 301 302 303 305 305 305 305 306 305 304 303 301 300 300 301 300 299 298 298 300 302 302 301 298 293 292 299 309 315 315 312 310 307 306 308 311 312 309 305 302 302 304 308 312 313 315 316 317 317 317 317 317 317 319 321 322 323 324 324 324 324 326
228 234 241 244 247 254 261 265 268 272 275 278 281 283 285 289 292 293 295 296 298 301 303 303 304 305 306 305 305 307 308 307 308 308 307 306 305 305 303 301 301 301 301 300 299 297 295 292 291 295 305 315 318 315 312 309 306 305 305 305 304 304 306 306 308 311 313 313 314 315 316 316 316 316 316 316 318 319 321 322 321 321 322 324 325
231 232 239 246 252 257 262 267 271 274 278 280 283 286 289 292 294 296 297 298 299 302 304 305 305 306 306 306 308 309 308 307 306 306 306 307 308 309 308 304 302 303 305 303 298 295 293 293 292 292 299 310 316 315 312 310 307 302 299 300 304 308 308 307 309 312 314 314 314 315 315 315 316 317 316 316 316 317 319 320 318 319 321 323 323
238 236 241 248 253 258 264 269 272 275 278 282 285 288 291 293 294 296 297 298 298 300 302 303 305 306 306 306 306 306 306 308 309 309 308 308 308 309 309 306 303 302 302 300 301 301 298 295 292 290 295 304 312 314 314 313 309 303 300 302 306 309 308 307 309 312 314 314 314 314 315 315 315 316 316 316 315 315 316 315 315 317 320 322 322
233 234 241 249 256 260 264 267 270 274 279 284 288 291 292 293 293 295 298 298 298 300 301 303 304 305 305 305 307 307 306 307 307 306 305 304 303 303 303 303 304 305 303 301 301 300 295 292 292 295 299 303 308 314 318 317 313 308 306 306 307 308 307 307 310 312 314 314 314 314 314 315 315 315 316 316 314 312 311 310 312 316 319 321 323
233 242 252 259 263 263 262 265 270 275 279 284 289 291 291 291 292 293 295 297 299 300 301 301 302 304 306 307 309 309 307 305 303 302 302 303 303 301 300 301 303 306 308 308 303 296 291 291 294 297 298 298 303 311 316 316 313 311 310 308 307 307 306 307 309 312 313 314 314 315 315 315 314 315 316 316 314 312 310 307 309 313 318 323 328
Height
1516 1516 1516 1517 1518 1519 1519 1520 1520 1521 1521 1521 1522 1522 1523 1524 1525 1527 1528 1529 1530 1529 1529 1530 1531 1532 1533 1534 1534 1534 1534 1535 1536 1536 1536 1537 1537 1537 1537 1536 1537 1538 1539 1540 1540 1540 1540 1540 1540 1541 1542 1543 1542 1540 1539 1539 1539 1540 1541 1541 1542 1543 1544 1544 1543 1542 1542 1544 1545 1546 1547 1547 1547 1547 1545 1544 1543 1543 1543 1543 1543 1543 1543 1543 1544
1517 1517 1517 1518 1518 1518 1519 1519 1520 1520 1520 1521 1522 1522 1523 1523 1524 1526 1526 1528 1528 1528 1529 1529 1531 1531 1531 1531 1531 1532 1532 1533 1534 1534 1535 1535 1536 1536 1536 1536 1536 1537 1537 1538 1538 1538 1538 1538 1538 1538 1539 1542 1542 1541 1539 1538 1537 1538 1538 1539 1539 1540 1540 1541 1541 1540 1539 1541 1543 1544 1545 1546 1546 1546 1546 1545 1543 1542 1542 1541 1541 1541 1540 1541 1541
1517 1517 1517 1518 1518 1518 1519 1519 1519 1520 1520 1520 1521 1522 1523 1523 1524 1525 1526 1526 1527 1528 1529 1529 1529 1529 1529 1530 1530 1530 1531 1531 1532 1533 1533 1534 1534 1535 1535 1535 1536 1536 1537 1536 1536 1536 1536 1536 1537 1537 1538 1539 1539 1540 1540 1538 1537 1536 1536 1537 1537 1537 1538 1538 1538 1538 1537 1539 1541 1542 1543 1544 1543 1543 1544 1545 1544 1542 1541 1540 1539 1539 1538 1538 1539
1516 1516 1517 1517 1517 1517 1518 1519 1519 1519 1520 1520 1520 1521 1522 1522 1523 1525 1525 1525 1526 1528 1529 1530 1529 1529 1528 1528 1528 1528 1529 1530 1531 1531 1531 1532 1532 1532 1533 1533 1534 1535 1535 1535 1535 1535 1535 1535 1535 1536 1536 1535 1536 1538 1538 1538 1537 1535 1534 1535 1534 1535 1535 1536 1536 1536 1536 1537 1538 1539 1539 1539 1538 1538 1538 1539 1540 1541 1540 1540 1539 1539 1538 1536 1536
1516 1516 1516 1516 1517 1517 1518 1518 1519 1519 1519 1520 1520 1520 1520 1520 1521 1522 1522 1523 1524 1525 1526 1527 1528 1528 1528 1527 1527 1527 1528 1529 1529 1528 1529 1529 1530 1530 1530 1530 1531 1532 1532 1532 1532 1532 1533 1532 1532 1532 1532 1531 1532 1534 1536 1538 1537 1535 1533 1532 1532 1532 1533 1534 1534 1533 1534 1534 1534 1535 1536 1536 1536 1536 1536 1535 1535 1536 1538 1538 1539 1539 1539 1537 1535
1516 1516 1516 1516 1516 1516 1517 1517 1518 1518 1518 1518 1518 1519 1519 1519 1519 1519 1520 1520 1521 1522 1523 1524 1525 1526 1527 1527 1526 1526 1526 1526 1526 1527 1527 1527 1528 1528 1528 1528 1528 1529 1529 1529 1530 1530 1530 1530 1530 1529 1529 1529 1529 1530 1532 1535 1536 1535 1533 1532 1531 1530 1529 1530 1531 1530 1530 1531 1532 1533 1535 1535 1535 1535 1534 1533 1533 1533 1533 1533 1533 1534 1535 1536 1536
1516 1516 1516 1516 1516 1516 1516 1516 1516 1517 1517 1517 1517 1518 1517 1518 1518 1518 1519 1519 1520 1520 1521 1522 1523 1524 1524 1525 1525 1525 1524 1524 1525 1525 1525 1525 1525 1525 1525 1525 1525 1526 1526 1526 1527 1527 1527 1527 1527 1527 1528 1528 1527 1527 1528 1530 1531 1531 1531 1532 1532 1531 1529 1528 1528 1527 1528 1529 1530 1532 1533 1533 1532 1532 1532 1532 1530 1529 1529 1529 1527 1527 1528 1529 1531
1516 1516 1516 1516 1516 1516 1515 1515 1515 1516 1516 1516 1516 1516 1516 1517 1517 1517 1518 1518 1519 1519 1520 1520 1521 1521 1522 1523 1523 1524 1523 1523 1523 1523 1523 1523 1523 1523 1522 1522 1522 1522 1523 1523 1524 1524 1524 1524 1524 1525 1525 1526 1526 1526 1527 1528 1527 1526 1526 1528 1530 1531 1529 1527 1526 1526 1526 1526 1527 1529 1530 1530 1529 1528 1528 1528 1526 1525 1525 1525 1523 1523 1524 1524 1525
1516 1516 1516 1516 1515 1515 1515 1515 1515 1515 1515 1515 1515 1515 1516 1516 1516 1516 1517 1517 1518 1518 1518 1518 1519 1519 1520 1521 1521 1522 1522 1521 1521 1521 1521 1520 1520 1520 1520 1520 1519 1519 1519 1520 1521 1521 1521 1521 1522 1522 1523 1523 1524 1524 1524 1525 1524 1523 1523 1524 1525 1526 1526 1526 1525 1524 1523 1523 1523 1525 1527 1526 1526 1525 1523 1522 1522 1521 1522 1521 1519 1519 1521 1521 1520
1517 1517 1517 1516 1516 1516 1515 1515 1515 1515 1515 1515 1515 1515 1515 1515 1515 1515 1515 1515 1515 1515 1515 1516 1516 1517 1518 1518 1519 1519 1519 1519 1519 1518 1518 1518 1518 1518 1517 1517 1517 1517 1517 1517 1518 1518 1519 1519 1519 1520 1520 1520 1521 1521 1521 1521 1521 1521 1521 1522 1522 1523 1523 1523 1523 1522 1521 1520 1520 1522 1523 1522 1522 1520 1517 1516 1517 1517 1518 1517 1515 1515 1516 1516 1515
1517 1517 1517 1517 1516 1516 1516 1516 1516 1515 1515 1515 1515 1514 1514 1514 1514 1514 1513 1513 1513 1513 1513 1513 1514 1514 1515 1515 1516 1517 1517 1516 1516 1516 1515 1515 1515 1515 1514 1514 1514 1514 1514 1514 1515 1515 1516 1516 1517 1517 1517 1517 1518 1518 1518 1518 1519 1519 1519 1520 1520 1521 1520 1520 1519 1519 1518 1517 1518 1519 1519 1517 1517 1516 1514 1512 1512 1512 1513 1513 1513 1513 1511 1510 1509
1517 1517 1517 1517 1516 1516 1516 1516 1516 1515 1514 1514 1514 1513 1513 1513 1512 1511 1511 1510 1510 1510 1510 1511 1511 1511 1512 1512 1513 1513 1514 1513 1513 1512 1512 1511 1511 1511 1511 1511 1511 1511 1511 1511 1512 1512 1513 1514 1514 1514 1515 1515 1515 1515 1515 1515 1516 1516 1516 1516 1517 1518 1518 1517 1516 1516 1515 1514 1515 1515 1515 1513 1512 1512 1511 1509 1507 1507 1508 1509 1509 1509 1507 1505 1504
1517 1517 1517 1516 1516 1516 1516 1516 1515 1515 1514 1514 1513 1513 1512 1511 1509 1509 1508 1507 1507 1507 1507 1507 1508 1508 1508 1508 1509 1510 1511 1510 1510 1509 1508 1507 1507 1507 1507 1507 1507 1508 1508 1508 1509 1509 1510 1510 1511 1511 1512 1512 1512 1512 1512 1511 1512 1512 1512 1513 1513 1513 1514 1513 1513 1512 1512 1511 1510 1510 1510 1510 1508 1507 1507 1506 1504 1503 1503 1504 1505 1504 1502 1501 1501
1518 1517 1517 1516 1516 1515 1515 1515 1515 1514 1514 1513 1512 1512 1511 1509 1508 1507 1506 1505 1504 1504 1503 1504 1504 1504 1504 1504 1505 1506 1507 1507 1506 1505 1504 1504 1503 1503 1503 1503 1503 1504 1504 1505 1506 1506 1506 1507 1507 1507 1508 1509 1509 1509 1508 1508 1508 1507 1508 1508 1509 1509 1509 1509 1509 1509 1508 1507 1506 1505 1506 1506 1505 1504 1504 1503 1501 1499 1498 1499 1500 1499 1497 1496 1496
1518 1517 1517 1517 1516 1515 1515 1514 1513 1513 1512 1512 1511 1510 1509 1508 1507 1505 1504 1503 1502 1501 1501 1500 1500 1500 1500 1501 1502 1503 1504 1503 1502 1502 1501 1500 1500 1500 1500 1500 1500 1501 1502 1502 1503 1503 1504 1504 1504 1504 1505 1506 1506 1505 1504 1504 1504 1504 1504 1504 1504 1505 1506 1506 1506 1506 1505 1504 1503 1501 1501 1501 1501 1501 1500 1499 1498 1496 1496 1496 1495 1494 1493 1491 1491
1518 1518 1517 1517 1516 1515 1514 1514 1512 1511 1511 1510 1509 1508 1507 1506 1504 1503 1502 1501 1500 1499 1498 1498 1498 1498 1498 1498 1499 1500 1500 1500 1499 1499 1498 1497 1497 1498 1498 1498 1498 1499 1499 1500 1501 1501 1502 1503 1503 1503 1504 1504 1503 1501 1501 1501 1501 1501 1500 1500 1500 1501 1501 1502 1503 1503 1503 1502 1500 1499 1498 1497 1497 1496 1496 1495 1494 1493 1493 1492 1491 1490 1488 1485 1484
1518 1518 1517 1517 1516 1515 1514 1513 1512 1511 1510 1509 1508 1507 1505 1504 1503 1501 1500 1499 1498 1497 1497 1496 1496 1496 1496 1496 1496 1496 1497 1497 1497 1496 1496 1495 1496 1496 1496 1496 1497 1497 1498 1499 1500 1501 1502 1503 1503 1502 1502 1501 1499 1499 1499 1498 1498 1497 1496 1496 1496 1496 1497 1498 1498 1497 1497 1496 1495 1494 1493 1492 1492 1491 1490 1490 1489 1490 1489 1487 1486 1486 1482 1479 1477
1518 1517 1516 1516 1516 1515 1514 1513 1512 1511 1510 1509 1507 1506 1505 1503 1502 1500 1499 1498 1498 1497 1496 1496 1495 1495 1495 1495 1495 1494 1495 1495 1495 1495 1495 1495 1495 1495 1495 1495 1496 1496 1497 1497 1498 1499 1500 1500 1500 1500 1499 1497 1497 1496 1496 1495 1494 1493 1493 1492 1491 1491 1492 1492 1491 1490 1489 1489 1488 1488 1487 1486 1485 1484 1484 1484 1484 1485 1483 1480 1481 1481 1478 1474 1471
1517 1516 1516 1515 1515 1514 1514 1512 1511 1511 1510 1508 1507 1506 1505 1503 1502 1500 1499 1499 1498 1497 1496 1496 1495 1495 1494 1494 1494 1494 1494 1494 1495 1495 1495 1495 1495 1495 1494 1494 1494 1494 1494 1494 1495 1496 1497 1497 1497 1496 1496 1495 1495 1494 1493 1492 1491 1490 1489 1487 1486 1486 1486 1485 1484 1483 1482 1481 1481 1481 1480 1479 1478 1477 1477 1477 1477 1478 1477 1475 1476 1475 1472 1468 1467
1516 1516 1515 1515 1515 1514 1513 1512 1511 1510 1509 1508 1507 1506 1505 1504 1502 1501 1500 1499 1498 1498 1497 1496 1495 1495 1495 1495 1495 1495 1495 1495 1495 1495 1495 1495 1494 1494 1494 1494 1493 1493 1493 1493 1494 1495 1495 1496 1495 1495 1494 1494 1494 1493 1492 1490 1488 1487 1485 1484 1482 1481 1480 1479 1479 1478 1476 1474 1474 1473 1472 1472 1471 1469 1468 1468 1468 1469 1469 1468 1469 1468 1466 1463 1462
1515 1515 1515 1514 1514 1513 1512 1512 1510 1510 1509 1508 1507 1506 1505 1504 1503 1502 1501 1500 1499 1499 1497 1497 1496 1496 1496 1496 1496 1496 1496 1496 1496 1496 1495 1495 1494 1494 1494 1493 1493 1492 1492 1492 1492 1492 1493 1493 1493 1492 1492 1492 1491 1490 1489 1489 1487 1485 1483 1481 1480 1478 1476 1474 1474 1473 1471 1469 1467 1466 1465 1464 1462 1461 1460 1459 1459 1460 1460 1461 1461 1461 1460 1457 1456
1514 1514 1514 1513 1513 1512 1512 1511 1510 1510 1509 1508 1507 1507 1506 1505 1505 1504 1503 1501 1501 1500 1499 1498 1497 1497 1497 1497 1497 1498 1497 1497 1497 1496 1495 1494 1494 1494 1493 1493 1492 1491 1491 1491 1491 1490 1490 1490 1490 1490 1489 1489 1488 1487 1487 1486 1485 1483 1481 1480 1477 1475 1473 1470 1468 1467 1465 1463 1461 1459 1458 1457 1455 1453 1452 1451 1451 1451 1452 1452 1454 1454 1453 1451 1450
1513 1512 1512 1512 1512 1512 1512 1511 1510 1510 1509 1508 1508 1508 1507 1506 1506 1505 1503 1502 1501 1501 1500 1499 1499 1498 1498 1498 1498 1498 1498 1497 1496 1495 1494 1494 1494 1493 1493 1492 1491 1490 1489 1489 1489 1488 1488 1488 1487 1487 1486 1486 1485 1485 1484 1483 1482 1480 1478 1476 1474 1472 1469 1467 1465 1463 1460 1459 1457 1455 1453 1452 1450 1448 1446 1445 1444 1444 1444 1444 1445 1446 1445 1444 1444
1512 1511 1511 1511 1511 1511 1511 1511 1510 1509 1508 1508 1508 1508 1507 1507 1506 1505 1504 1503 1502 1501 1501 1500 1500 1499 1499 1499 1498 1499 1498 1497 1496 1495 1494 1494 1493 1493 1492 1491 1490 1489 1488 1487 1487 1486 1486 1485 1485 1484 1484 1483 1482 1481 1480 1479 1478 1476 1474 1472 1470 1468 1465 1463 1461 1459 1457 1455 1454 1451 1450 1449 1447 1445 1443 1441 1440 1439 1438 1437 1437 1438 1438 1437 1436
1511 1510 1511 1511 1511 1511 1511 1510 1509 1509 1508 1508 1508 1508 1508 1507 1507 1506 1504 1503 1502 1502 1501 1501 1500 1499 1499 1499 1499 1499 1499 1497 1496 1495 1494 1494 1493 1492 1491 1490 1489 1488 1487 1486 1485 1484 1484 1483 1482 1481 1480 1479 1478 1477 1476 1475 1473 1471 1470 1468 1466 1465 1463 1461 1459 1457 1455 1453 1451 1449 1448 1446 1445 1443 1441 1439 1437 1435 1434 1433 1432 1432 1432 1430 1429
1510 1510 1510 1510 1510 1511 1510 1510 1509 1509 1509 1509 1509 1509 1508 1507 1507 1506 1505 1504 1503 1503 1502 1501 1500 1500 1499 1499 1498 1498 1498 1498 1496 1495 1495 1494 1493 1492 1491 1490 1488 1487 1486 1484 1483 1482 1481 1480 1479 1478 1477 1476 1475 1473 1472 1471 1470 1468 1467 1466 1464 1463 1461 1459 1458 1456 1454 1452 1450 1448 1446 1444 1442 1440 1438 1437 1434 1433 1431 1430 1428 1427 1427 1425 1423
1509 1509 1509 1509 1510 1510 1510 1510 1509 1509 1509 1509 1509 1509 1508 1507 1507 1506 1505 1504 1503 1502 1502 1502 1501 1500 1499 1499 1498 1498 1498 1498 1496 1495 1494 1493 1492 1491 1490 1488 1487 1485 1484 1483 1481 1480 1479 1478 1477 1476 1475 1473 1472 1471 1470 1469 1468 1466 1465 1464 1463 1461 1460 1458 1457 1455 1453 1451 1449 1446 1444 1442 1440 1438 1437 1435 1433 1431 1430 1428 1426 1424 1423 1422 1419
1508 1508 1508 1509 1509 1509 1509 1509 1509 1509 1509 1509 1508 1508 1507 1507 1506 1506 1505 1504 1503 1502 1502 1501 1501 1500 1499 1499 1498 1498 1497 1497 1495 1494 1493 1492 1490 1489 1488 1486 1485 1484 1482 1481 1480 1478 1477 1476 1475 1474 1473 1472 1472 1471 1470 1469 1468 1466 1465 1464 1463 1461 1460 1458 1456 1454 1452 1450 1448 1445 1443 1440 1438 1436 1434 1432 1430 1429 1428 1426 1424 1422 1421 1419 1416
1507 1507 1508 1508 1509 1508 1508 1508 1508 1508 1508 1508 1508 1508 1507 1507 1506 1505 1505 1505 1504 1503 1502 1501 1500 1500 1499 1499 1498 1497 1497 1496 1495 1494 1493 1491 1490 1488 1487 1485 1484 1483 1481 1480 1479 1477 1476 1475 1474 1473 1472 1472 1472 1470 1469 1468 1467 1466 1465 1464 1462 1461 1459 1457 1455 1453 1451 1448 1446 1443 1441 1438 1436 1434 1431 1429 1427 1426 1425 1423 1421 1419 1417 1416 1413
1507 1508 1508 1508 1508 1507 1507 1508 1508 1508 1508 1508 1508 1507 1507 1507 1506 1506 1505 1505 1504 1503 1502 1502 1501 1500 1499 1499 1498 1497 1497 1496 1494 1493 1492 1491 1489 1488 1486 1485 1484 1482 1481 1480 1478 1477 1475 1474 1473 1472 1472 1471 1470 1469 1468 1467 1465 1464 1463 1462 1460 1459 1457 1455 1454 1451 1449 1447 1444 1442 1439 1437 1434 1431 1429 1426 1423 1421 1420 1418 1417 1415 1413 1411 1408
1507 1508 1508 1508 1508 1507 1507 1507 1507 1507 1507 1507 1507 1507 1507 1506 1506 1505 1505 1505 1504 1503 1503 1502 1501 1501 1500 1499 1498 1497 1497 1495 1494 1493 1492 1490 1489 1487 1486 1485 1484 1482 1481 1479 1478 1477 1475 1474 1473 1473 1472 1470 1469 1468 1467 1465 1463 1462 1461 1459 1458 1456 1455 1453 1451 1449 1447 1445 1442 1440 1437 1435 1432 1429 1427 1423 1420 1417 1415 1413 1412 1411 1409 1407 1405
1507 1507 1507 1507 1507 1507 1507 1507 1507 1507 1507 1507 1507 1507 1507 1506 1506 1505 1505 1504 1503 1503 1502 1502 1501 1501 1500 1500 1499 1498 1496 1495 1494 1493 1491 1490 1489 1487 1486 1484 1483 1482 1481 1479 1478 1477 1476 1475 1474 1473 1471 1470 1469 1468 1466 1464 1462 1461 1459 1458 1456 1455 1453 1452 1449 1448 1446 1443 1440 1438 1435 1433 1430 1428 1425 1422 1418 1415 1413 1410 1409 1407 1405 1404 1402
1506 1506 1506 1506 1506 1506 1506 1506 1507 1507 1507 1507 1507 1507 1506 1506 1506 1505 1504 1504 1503 1503 1502 1502 1501 1501 1500 1499 1498 1497 1496 1495 1494 1493 1491 1490 1488 1487 1485 1484 1483 1482 1481 1480 1478 1477 1476 1475 1474 1472 1471 1470 1468 1467 1465 1463 1462 1460 1458 1457 1455 1453 1452 1450 1448 1446 1444 1441 1439 1436 1433 1431 1429 1426 1423 1421 1418 1415 1412 1409 1407 1405 1402 1400 1398
1506 1506 1506 1506 1506 1505 1505 1506 1506 1507 1507 1507 1507 1506 1506 1506 1505 1505 1504 1504 1503 1503 1502 1502 1501 1501 1500 1499 1498 1497 1496 1495 1494 1493 1492 1490 1489 1487 1486 1484 1483 1482 1481 1480 1478 1477 1476 1475 1473 1471 1470 1469 1467 1466 1464 1462 1461 1459 1457 1456 1454 1452 1450 1448 1446 1444 1442 1440 1437 1435 1432 1430 1427 1424 1421 1419 1416 1413 1411 1408 1405 1402 1400 1397 1395
1505 1505 1505 1505 1505 1505 1505 1505 1506 1506 1506 1506 1506 1506 1505 1505 1505 1504 1504 1504 1503 1503 1502 1502 1501 1500 1499 1499 1498 1497 1496 1495 1494 1493 1492 1490 1488 1487 1486 1484 1483 1482 1481 1480 1479 1478 1476 1474 1472 1471 1469 1468 1466 1465 1463 1461 1460 1458 1456 1454 1452 1450 1448 1446 1444 1442 1440 1438 1435 1433 1431 1428 1426 1423 1420 1417 1414 1412 1408 1406 1403 1401 1398 1395 1392
1504 1505 1504 1504 1504 1504 1504 1504 1505 1506 1506 1506 1505 1505 1505 1504 1504 1504 1504 1504 1503 1503 1502 1501 1500 1499 1498 1497 1496 1496 1495 1494 1493 1492 1491 1489 1487 1486 1484 1483 1482 1481 1480 1479 1478 1477 1475 1473 1471 1470 1468 1466 1465 1463 1461 1460 1458 1457 1455 1453 1451 1449 1447 1445 1443 1440 1438 1436 1434 1431 1429 1427 1424 1422 1419 1415 1413 1410 1407 1404 1401 1398 1396 1393 1390
1503 1504 1504 1504 1504 1504 1504 1504 1504 1505 1504 1504 1504 1504 1504 1504 1504 1504 1504 1503 1503 1502 1501 1500 1499 1498 1497 1496 1496 1495 1493 1492 1491 1490 1489 1488 1487 1485 1483 1482 1480 1479 1479 1478 1476 1475 1473 1471 1470 1468 1467 1465 1463 1462 1460 1458 1457 1455 1453 1451 1449 1448 1445 1443 1441 1439 1436 1434 1432 1430 1427 1425 1422 1420 1417 1413 1411 1408 1405 1403 1399 1396 1393 1391 1387
1502 1503 1503 1503 1503 1503 1503 1503 1503 1503 1503 1503 1503 1503 1503 1503 1503 1503 1503 1502 1501 1501 1500 1499 1499 1498 1497 1496 1495 1494 1493 1492 1490 1489 1489 1488 1487 1485 1483 1481 1480 1479 1477 1476 1475 1473 1471 1470 1468 1467 1465 1464 1462 1460 1458 1457 1455 1453 1451 1449 1447 1445 1443 1441 1439 1437 1435 1432 1430 1428 1425 1423 1420 1418 1415 1412 1409 1406 1403 1400 1397 1394 1390 1388 1385
1501 1501 1501 1502 1502 1501 1501 1501 1502 1502 1502 1502 1503 1503 1503 1503 1503 1502 1502 1501 1501 1500 1500 1499 1498 1498 1497 1496 1495 1493 1492 1491 1490 1489 1488 1487 1486 1485 1483 1481 1479 1478 1476 1475 1473 1471 1470 1468 1467 1465 1464 1462 1460 1459 1457 1455 1453 1451 1449 1447 1445 1443 1441 1439 1437 1435 1433 1430 1428 1426 1423 1421 1418 1415 1413 1410 1407 1404 1401 1398 1395 1392 1388 1385 1382
1500 1500 1500 1500 1501 1501 1500 1501 1501 1501 1501 1501 1502 1502 1502 1502 1502 1501 1501 1500 1500 1499 1499 1498 1497 1496 1496 1495 1494 1493 1492 1490 1489 1488 1486 1485 1484 1483 1482 1480 1479 1477 1475 1474 1472 1470 1468 1467 1465 1463 1462 1460 1458 1457 1455 1453 1451 1449 1447 1445 1443 1441 1439 1437 1435 1433 1430 1428 1426 1423 1421 1418 1416 1413 1411 1408 1405 1402 1399 1396 1393 1390 1387 1383 1380
1499 1499 1499 1499 1500 1500 1500 1500 1500 1500 1500 1500 1500 1501 1501 1501 1500 1500 1500 1499 1498 1498 1497 1496 1495 1494 1493 1492 1492 1491 1490 1488 1487 1485 1484 1483 1482 1480 1479 1478 1477 1476 1474 1473 1471 1469 1467 1466 1464 1462 1460 1458 1456 1455 1453 1450 1448 1447 1445 1443 1441 1439 1437 1435 1432 1430 1428 1426 1423 1421 1418 1416 1414 1411 1409 1406 1403 1400 1397 1394 1391 1388 1385 1382 1378
1498 1498 1498 1498 1499 1499 1499 1499 1499 1499 1499 1499 1499 1499 1499 1498 1498 1498 1498 1497 1496 1495 1494 1493 1492 1491 1490 1489 1488 1487 1486 1485 1483 1482 1481 1480 1479 1478 1477 1476 1475 1474 1473 1472 1470 1469 1467 1465 1463 1461 1459 1457 1455 1453 1451 1449 1446 1444 1442 1440 1438 1436 1434 1432 1430 1427 1425 1422 1420 1418 1416 1414 1412 1409 1407 1404 1401 1397 1395 1392 1389 1386 1383 1379 1376
1496 1496 1497 1497 1497 1497 1497 1497 1497 1498 1498 1498 1498 1497 1497 1497 1497 1496 1495 1494 1493 1492 1491 1490 1489 1487 1486 1486 1485 1484 1483 1482 1481 1479 1478 1477 1476 1475 1474 1474 1473 1472 1471 1469 1468 1467 1465 1463 1461 1460 1458 1456 1453 1451 1449 1447 1445 1443 1440 1438 1435 1433 1431 1429 1427 1424 1421 1419 1417 1416 1414 1412 1409 1407 1404 1402 1399 1395 1392 1389 1386 1383 1380 1377 1373
1494 1494 1495 1496 1496 1496 1496 1496 1496 1496 1496 1495 1495 1495 1494 1494 1493 1492 1491 1490 1489 1488 1488 1487 1486 1485 1485 1484 1483 1481 1480 1479 1478 1476 1475 1474 1473 1472 1472 1472 1471 1469 1468 1466 1465 1464 1462 1461 1460 1458 1457 1455 1452 1450 1448 1446 1444 1442 1439 1437 1435 1432 1429 1427 1425 1422 1420 1418 1415 1413 1411 1408 1406 1404 1401 1399 1397 1393 1390 1387 1384 1381 1378 1374 1371
1492 1492 1493 1494 1494 1494 1494 1494 1494 1494 1493 1493 1493 1492 1492 1491 1491 1490 1489 1489 1488 1487 1486 1485 1484 1483 1482 1481 1480 1479 1478 1476 1475 1474 1473 1473 1472 1470 1469 1468 1467 1466 1465 1464 1463 1461 1460 1458 1457 1456 1454 1453 1451 1448 1446 1444 1442 1440 1438 1436 1434 1431 1429 1427 1424 1422 1420 1417 1413 1410 1407 1405 1403 1400 1398 1396 1394 1391 1387 1385 1382 1378 1375 1372 1369
1490 1491 1491 1491 1492 1492 1492 1492 1492 1492 1492 1491 1491 1490 1490 1490 1489 1488 1488 1487 1486 1485 1484 1483 1482 1480 1479 1478 1478 1477 1475 1474 1473 1472 1471 1470 1469 1468 1467 1465 1464 1463 1462 1461 1460 1458 1456 1455 1454 1453 1452 1450 1448 1446 1444 1442 1440 1438 1436 1434 1432 1430 1427 1425 1423 1420 1418 1414 1411 1407 1404 1401 1399 1397 1395 1393 1391 1388 1385 1382 1379 1377 1374 1370 1367
1488 1488 1489 1489 1489 1490 1490 1490 1490 1489 1489 1489 1488 1488 1487 1487 1486 1485 1485 1484 1483 1482 1481 1480 1479 1478 1477 1475 1474 1473 1472 1471 1470 1469 1468 1467 1466 1465 1464 1462 1461 1460 1458 1458 1457 1455 1453 1451 1450 1450 1449 1447 1445 1443 1442 1439 1437 1435 1433 1431 1429 1427 1425 1422 1420 1418 1415 1411 1408 1405 1402 1399 1396 1394 1392 1390 1388 1385 1383 1380 1377 1375 1372 1368 1365
1484 1485 1486 1486 1487 1487 1487 1487 1487 1487 1486 1486 1486 1485 1485 1484 1483 1483 1482 1481 1480 1479 1478 1477 1476 1475 1474 1472 1471 1470 1469 1468 1467 1466 1465 1464 1463 1462 1461 1459 1458 1456 1455 1454 1453 1451 1450 1448 1447 1446 1445 1444 1442 1441 1439 1437 1435 1433 1430 1428 1426 1424 1421 1419 1417 1414 1411 1408 1405 1402 1399 1396 1393 1391 1389 1387 1385 1382 1380 1378 1375 1372 1369 1366 1363
1482 1483 1483 1484 1484 1484 1484 1484 1484 1484 1483 1483 1483 1482 1482 1481 1480 1479 1479 1478 1477 1476 1475 1474 1473 1472 1471 1469 1468 1467 1466 1465 1464 1463 1462 1461 1460 1459 1458 1456 1455 1453 1452 1451 1450 1448 1446 1444 1443 1442 1441 1441 1440 1438 1436 1434 1432 1430 1427 1425 1423 1420 1418 1416 1413 1411 1407 1404 1402 1399 1396 1393 1391 1388 1386 1384 1382 1379 1377 1376 1373 1370 1367 1364 1361
1479 1480 1481 1481 1481 1481 1481 1481 1481 1481 1481 1481 1480 1479 1479 1478 1477 1477 1476 1475 1474 1473 1473 1471 1470 1469 1468 1467 1466 1464 1463 1463 1462 1460 1459 1458 1457 1455 1454 1453 1452 1450 1449 1448 1447 1445 1443 1441 1440 1438 1437 1437 1436 1435 1433 1430 1428 1425 1423 1421 1419 1417 1415 1412 1410 1407 1404 1401 1398 1395 1393 1390 1387 1385 1383 1381 1379 1377 1375 1373 1371 1368 1365 1362 1359
1477 1477 1477 1478 1478 1478 1479 1479 1478 1478 1478 1477 1477 1476 1476 1476 1475 1474 1473 1472 1471 1471 1470 1468 1467 1466 1465 1464 1463 1462 1461 1460 1459 1457 1456 1455 1454 1452 1451 1450 1449 1447 1446 1445 1443 1442 1440 1438 1436 1435 1433 1433 1432 1431 1429 1426 1424 1422 1419 1417 1415 1413 1411 1408 1406 1403 1401 1398 1395 1392 1389 1387 1384 1382 1380 1378 1376 1374 1372 1371 1369 1366 1363 1360 1357